LIC0209 MSLP-SEGU

Flight info

Callsign LIC0209
Flight time 2h 40m
Altitude 35000
Route ALTEG2W ALTEG DCT ARLEN DCT ALRAX DCT OGLUT DCT ASDEL ASDEL2A
Aircraft A321/M-SDE3FGHIRWY/LB1

Departure

Time 2026-05-07 19:11
Airport El Salvador International Airport Saint Óscar Arnulfo Romero y Galdámez (MSLP)

Arrival

Time 2026-05-07 21:52
Airport José Joaquín de Olmedo International Airport (SEGU)
Time Latitude Longitude Altitude Speed Heading
2026-05-07 18:57 13.44499 -89.05428 96 ft 0 kts 341°
2026-05-07 19:04 13.44487 -89.05424 96 ft 4 kts 332°
2026-05-07 19:05 13.44466 -89.05407 95 ft 4 kts 305°
2026-05-07 19:05 13.44456 -89.05388 97 ft 0 kts 288°
2026-05-07 19:07 13.44456 -89.05390 97 ft 2 kts 280°
2026-05-07 19:07 13.44430 -89.05397 96 ft 7 kts 183°
2026-05-07 19:07 13.44378 -89.05366 97 ft 12 kts 118°
2026-05-07 19:07 13.44388 -89.05285 100 ft 11 kts 76°
2026-05-07 19:08 13.44411 -89.05214 99 ft 10 kts 69°
2026-05-07 19:08 13.44433 -89.05153 101 ft 8 kts 70°
2026-05-07 19:08 13.44463 -89.05071 100 ft 17 kts 70°
2026-05-07 19:08 13.44504 -89.04954 101 ft 17 kts 70°
2026-05-07 19:09 13.44545 -89.04842 100 ft 16 kts 69°
2026-05-07 19:09 13.44583 -89.04735 103 ft 15 kts 70°
2026-05-07 19:09 13.44620 -89.04632 103 ft 18 kts 70°
2026-05-07 19:09 13.44669 -89.04494 106 ft 21 kts 69°
2026-05-07 19:10 13.44713 -89.04367 108 ft 18 kts 70°
2026-05-07 19:10 13.44711 -89.04254 107 ft 17 kts 134°
2026-05-07 19:10 13.44621 -89.04206 109 ft 8 kts 156°
2026-05-07 19:10 13.44589 -89.04218 108 ft 0 kts 243°
2026-05-07 19:11 13.44572 -89.04254 107 ft 33 kts 247°
2026-05-07 19:11 13.44387 -89.04752 104 ft 112 kts 249°
2026-05-07 19:11 13.44051 -89.05698 141 ft 162 kts 249°
2026-05-07 19:11 13.43709 -89.06782 849 ft 158 kts 247°
2026-05-07 19:12 13.43340 -89.07844 1585 ft 159 kts 247°
2026-05-07 19:12 13.42941 -89.08923 2149 ft 168 kts 247°
2026-05-07 19:12 13.42500 -89.10117 2440 ft 190 kts 248°
2026-05-07 19:12 13.41922 -89.11414 2647 ft 211 kts 239°
2026-05-07 19:13 13.41043 -89.12718 2793 ft 234 kts 229°
2026-05-07 19:13 13.39834 -89.13934 3062 ft 259 kts 217°
2026-05-07 19:13 13.38280 -89.14939 3775 ft 268 kts 204°
2026-05-07 19:13 13.36517 -89.15597 4601 ft 273 kts 192°
2026-05-07 19:14 13.34587 -89.15841 5390 ft 278 kts 178°
2026-05-07 19:14 13.32655 -89.15616 6215 ft 282 kts 164°
2026-05-07 19:14 13.30831 -89.14936 6980 ft 284 kts 150°
2026-05-07 19:14 13.29186 -89.13814 7784 ft 285 kts 137°
2026-05-07 19:15 13.27827 -89.12306 8614 ft 285 kts 123°
2026-05-07 19:15 13.26787 -89.10602 9408 ft 286 kts 120°
2026-05-07 19:15 13.25720 -89.08863 10148 ft 290 kts 121°
2026-05-07 19:15 13.24575 -89.07033 10409 ft 312 kts 121°
2026-05-07 19:16 13.23356 -89.05098 10635 ft 331 kts 122°
2026-05-07 19:16 13.22089 -89.03094 11155 ft 338 kts 122°
2026-05-07 19:16 13.20821 -89.01085 11804 ft 341 kts 121°
2026-05-07 19:16 13.19530 -88.99034 12524 ft 343 kts 121°
2026-05-07 19:17 13.18233 -88.96965 13214 ft 346 kts 121°
2026-05-07 19:17 13.16930 -88.94885 13882 ft 348 kts 121°
2026-05-07 19:17 13.15617 -88.92782 14478 ft 351 kts 121°
2026-05-07 19:17 13.14297 -88.90667 15058 ft 354 kts 121°
2026-05-07 19:18 13.12964 -88.88533 15652 ft 357 kts 121°
2026-05-07 19:18 13.11617 -88.86379 16232 ft 360 kts 121°
2026-05-07 19:18 13.10260 -88.84210 16790 ft 363 kts 122°
2026-05-07 19:18 13.08889 -88.82017 17339 ft 367 kts 122°
2026-05-07 19:19 13.07508 -88.79810 17880 ft 370 kts 122°
2026-05-07 19:19 13.06113 -88.77581 18377 ft 373 kts 122°
2026-05-07 19:19 13.04706 -88.75337 18870 ft 375 kts 122°
2026-05-07 19:19 13.03291 -88.73078 19336 ft 378 kts 122°
2026-05-07 19:20 13.01867 -88.70807 19786 ft 380 kts 122°
2026-05-07 19:20 13.00435 -88.68522 20217 ft 382 kts 122°
2026-05-07 19:20 12.98994 -88.66228 20631 ft 384 kts 122°
2026-05-07 19:20 12.97545 -88.63924 21027 ft 386 kts 122°
2026-05-07 19:21 12.96087 -88.61603 21405 ft 388 kts 122°
2026-05-07 19:21 12.94623 -88.59271 21801 ft 390 kts 122°
2026-05-07 19:21 12.93155 -88.56932 22174 ft 392 kts 122°
2026-05-07 19:21 12.91679 -88.54577 22554 ft 394 kts 122°
2026-05-07 19:22 12.90194 -88.52210 22927 ft 396 kts 122°
2026-05-07 19:22 12.88703 -88.49833 23299 ft 398 kts 122°
2026-05-07 19:22 12.87203 -88.47443 23638 ft 400 kts 122°
2026-05-07 19:22 12.85692 -88.45040 23955 ft 402 kts 122°
2026-05-07 19:23 12.84175 -88.42631 24283 ft 403 kts 122°
2026-05-07 19:23 12.82652 -88.40212 24612 ft 405 kts 122°
2026-05-07 19:23 12.81120 -88.37776 24932 ft 407 kts 122°
2026-05-07 19:23 12.79583 -88.35332 25261 ft 409 kts 122°
2026-05-07 19:24 12.78037 -88.32873 25591 ft 411 kts 122°
2026-05-07 19:24 12.76484 -88.30405 25933 ft 413 kts 122°
2026-05-07 19:24 12.74920 -88.27921 26246 ft 416 kts 122°
2026-05-07 19:24 12.73346 -88.25424 26555 ft 418 kts 122°
2026-05-07 19:25 12.71764 -88.22918 26872 ft 421 kts 122°
2026-05-07 19:25 12.70689 -88.21214 27061 ft 422 kts 122°
2026-05-07 19:25 12.69091 -88.18681 27374 ft 424 kts 122°
2026-05-07 19:25 12.67485 -88.16132 27680 ft 427 kts 122°
2026-05-07 19:26 12.65872 -88.13573 27984 ft 429 kts 122°
2026-05-07 19:26 12.64253 -88.11001 28284 ft 431 kts 122°
2026-05-07 19:26 12.62624 -88.08417 28590 ft 433 kts 122°
2026-05-07 19:26 12.60985 -88.05820 28913 ft 435 kts 122°
2026-05-07 19:27 12.59341 -88.03216 29218 ft 437 kts 122°
2026-05-07 19:27 12.57685 -88.00597 29507 ft 439 kts 122°
2026-05-07 19:27 12.56007 -87.97982 29792 ft 441 kts 124°
2026-05-07 19:27 12.54114 -87.95504 30054 ft 444 kts 127°
2026-05-07 19:28 12.52178 -87.93032 30280 ft 446 kts 127°
2026-05-07 19:28 12.50233 -87.90552 30487 ft 448 kts 127°
2026-05-07 19:28 12.48277 -87.88059 30701 ft 450 kts 127°
2026-05-07 19:28 12.46319 -87.85562 30958 ft 450 kts 127°
2026-05-07 19:29 12.44360 -87.83064 31249 ft 450 kts 127°
2026-05-07 19:29 12.42400 -87.80562 31546 ft 450 kts 128°
2026-05-07 19:29 12.40441 -87.78065 31841 ft 450 kts 128°
2026-05-07 19:29 12.38477 -87.75565 32138 ft 451 kts 128°
2026-05-07 19:30 12.36507 -87.73058 32395 ft 453 kts 128°
2026-05-07 19:30 12.34532 -87.70548 32676 ft 454 kts 128°
2026-05-07 19:30 12.32556 -87.68032 33022 ft 453 kts 128°
2026-05-07 19:30 12.30585 -87.65519 33351 ft 453 kts 128°
2026-05-07 19:31 12.28615 -87.63009 33676 ft 453 kts 128°
2026-05-07 19:31 12.26648 -87.60499 33983 ft 453 kts 128°
2026-05-07 19:31 12.24673 -87.57987 34252 ft 453 kts 128°
2026-05-07 19:31 12.22697 -87.55473 34538 ft 454 kts 128°
2026-05-07 19:32 12.20745 -87.52995 34797 ft 454 kts 128°
2026-05-07 19:32 12.18734 -87.50448 34879 ft 452 kts 128°
2026-05-07 19:32 12.14856 -87.45519 34900 ft 446 kts 128°
2026-05-07 19:33 12.10977 -87.40588 34902 ft 445 kts 128°
2026-05-07 19:33 12.07100 -87.35663 34892 ft 445 kts 128°
2026-05-07 19:34 12.03230 -87.30743 34897 ft 443 kts 128°
2026-05-07 19:34 11.99361 -87.25833 34881 ft 444 kts 128°
2026-05-07 19:35 11.95482 -87.20912 34880 ft 445 kts 128°
2026-05-07 19:35 11.91590 -87.15986 34880 ft 446 kts 128°
2026-05-07 19:36 11.87692 -87.11052 34882 ft 446 kts 128°
2026-05-07 19:36 11.83795 -87.06117 34874 ft 447 kts 128°
2026-05-07 19:37 11.79631 -87.01427 34878 ft 447 kts 137°
2026-05-07 19:37 11.75040 -86.97143 34885 ft 447 kts 137°
2026-05-07 19:38 11.70459 -86.92853 34883 ft 447 kts 136°
2026-05-07 19:38 11.65887 -86.88576 34901 ft 445 kts 136°
2026-05-07 19:39 11.61321 -86.84313 34880 ft 445 kts 136°
2026-05-07 19:39 11.56748 -86.80044 34879 ft 446 kts 136°
2026-05-07 19:40 11.52175 -86.75770 34880 ft 446 kts 136°
2026-05-07 19:40 11.47595 -86.71492 34875 ft 446 kts 136°
2026-05-07 19:41 11.43013 -86.67214 34881 ft 447 kts 136°
2026-05-07 19:41 11.38423 -86.62934 34885 ft 447 kts 136°
2026-05-07 19:42 11.33829 -86.58654 34883 ft 447 kts 137°
2026-05-07 19:42 11.29235 -86.54376 34905 ft 447 kts 136°
2026-05-07 19:43 11.24656 -86.50103 34899 ft 447 kts 136°
2026-05-07 19:43 11.20067 -86.45829 34894 ft 447 kts 136°
2026-05-07 19:44 11.15472 -86.41555 34886 ft 447 kts 136°
2026-05-07 19:44 11.10874 -86.37286 34885 ft 447 kts 136°
2026-05-07 19:45 11.06280 -86.33026 34882 ft 447 kts 136°
2026-05-07 19:45 11.01689 -86.28755 34884 ft 447 kts 136°
2026-05-07 19:46 10.97094 -86.24488 34879 ft 447 kts 136°
2026-05-07 19:46 10.92069 -86.20771 34877 ft 449 kts 148°
2026-05-07 19:47 10.86708 -86.17515 34885 ft 449 kts 147°
2026-05-07 19:47 10.81347 -86.14253 34884 ft 449 kts 147°
2026-05-07 19:48 10.75992 -86.10994 34894 ft 449 kts 147°
2026-05-07 19:48 10.70633 -86.07742 34896 ft 448 kts 147°
2026-05-07 19:49 10.65312 -86.04512 34896 ft 448 kts 147°
2026-05-07 19:49 10.59962 -86.01265 34899 ft 448 kts 147°
2026-05-07 19:50 10.54580 -85.98001 34900 ft 447 kts 148°
2026-05-07 19:50 10.49270 -85.94781 34895 ft 448 kts 147°
2026-05-07 19:51 10.43922 -85.91538 34887 ft 448 kts 148°
2026-05-07 19:51 10.38577 -85.88296 34894 ft 447 kts 147°
2026-05-07 19:52 10.33235 -85.85056 34884 ft 447 kts 147°
2026-05-07 19:52 10.27885 -85.81819 34887 ft 447 kts 147°
2026-05-07 19:53 10.22541 -85.78591 34881 ft 447 kts 147°
2026-05-07 19:53 10.17200 -85.75359 34877 ft 447 kts 148°
2026-05-07 19:54 10.11857 -85.72129 34873 ft 447 kts 148°
2026-05-07 19:54 10.06506 -85.68888 34873 ft 448 kts 148°
2026-05-07 19:55 10.01141 -85.65642 34875 ft 449 kts 148°
2026-05-07 19:55 9.95766 -85.62397 34881 ft 450 kts 148°
2026-05-07 19:56 9.90387 -85.59148 34881 ft 450 kts 148°
2026-05-07 19:56 9.85005 -85.55899 34890 ft 450 kts 148°
2026-05-07 19:57 9.79622 -85.52660 34889 ft 450 kts 148°
2026-05-07 19:57 9.74242 -85.49414 34895 ft 450 kts 149°
2026-05-07 19:58 9.68865 -85.46173 34898 ft 450 kts 149°
2026-05-07 19:58 9.63489 -85.42929 34908 ft 449 kts 149°
2026-05-07 19:59 9.58116 -85.39689 34891 ft 450 kts 148°
2026-05-07 19:59 9.52731 -85.36446 34882 ft 451 kts 148°
2026-05-07 20:00 9.47336 -85.33198 34887 ft 451 kts 148°
2026-05-07 20:00 9.41935 -85.29950 34885 ft 452 kts 148°
2026-05-07 20:01 9.36525 -85.26695 34881 ft 453 kts 148°
2026-05-07 20:01 9.31100 -85.23431 34878 ft 454 kts 148°
2026-05-07 20:02 9.25665 -85.20165 34877 ft 454 kts 148°
2026-05-07 20:02 9.20229 -85.16901 34880 ft 454 kts 148°
2026-05-07 20:03 9.14795 -85.13632 34883 ft 455 kts 148°
2026-05-07 20:03 9.09352 -85.10359 34884 ft 455 kts 148°
2026-05-07 20:04 9.03912 -85.07092 34895 ft 455 kts 148°
2026-05-07 20:04 8.98472 -85.03831 34902 ft 454 kts 148°
2026-05-07 20:05 8.93045 -85.00576 34904 ft 453 kts 148°
2026-05-07 20:05 8.87626 -84.97327 34903 ft 452 kts 148°
2026-05-07 20:06 8.82219 -84.94086 34899 ft 452 kts 148°
2026-05-07 20:06 8.76818 -84.90845 34895 ft 451 kts 148°
2026-05-07 20:07 8.71410 -84.87608 34897 ft 452 kts 148°
2026-05-07 20:07 8.66919 -84.84917 34901 ft 451 kts 149°
2026-05-07 20:08 8.61529 -84.81692 34919 ft 449 kts 149°
2026-05-07 20:08 8.56154 -84.78486 34910 ft 448 kts 149°
2026-05-07 20:09 8.50797 -84.75283 34918 ft 447 kts 149°
2026-05-07 20:10 8.42782 -84.70478 34904 ft 446 kts 149°
2026-05-07 20:10 8.37443 -84.67287 34901 ft 446 kts 149°
2026-05-07 20:11 8.32098 -84.64093 34872 ft 448 kts 148°
2026-05-07 20:11 8.26726 -84.60879 34872 ft 449 kts 148°
2026-05-07 20:12 8.21354 -84.57673 34889 ft 448 kts 149°
2026-05-07 20:12 8.15990 -84.54473 34894 ft 447 kts 149°
2026-05-07 20:13 8.10632 -84.51278 34899 ft 447 kts 149°
2026-05-07 20:13 8.05276 -84.48088 34889 ft 447 kts 149°
2026-05-07 20:14 7.99927 -84.44894 34897 ft 447 kts 148°
2026-05-07 20:14 7.94586 -84.41701 34893 ft 447 kts 148°
2026-05-07 20:15 7.89237 -84.38509 34899 ft 446 kts 149°
2026-05-07 20:15 7.83891 -84.35333 34897 ft 445 kts 149°
2026-05-07 20:16 7.78557 -84.32158 34906 ft 445 kts 149°
2026-05-07 20:16 7.73227 -84.28983 34896 ft 445 kts 149°
2026-05-07 20:17 7.67905 -84.25811 34909 ft 444 kts 149°
2026-05-07 20:17 7.62599 -84.22643 34912 ft 443 kts 149°
2026-05-07 20:18 7.57297 -84.19485 34900 ft 442 kts 149°
2026-05-07 20:18 7.51997 -84.16332 34892 ft 442 kts 149°
2026-05-07 20:19 7.46684 -84.13180 34879 ft 443 kts 149°
2026-05-07 20:19 7.41371 -84.10027 34877 ft 444 kts 149°
2026-05-07 20:20 7.36045 -84.06856 34882 ft 445 kts 149°
2026-05-07 20:20 7.30713 -84.03691 34880 ft 445 kts 149°
2026-05-07 20:21 7.25376 -84.00525 34888 ft 445 kts 149°
2026-05-07 20:21 7.20046 -83.97357 34889 ft 445 kts 149°
2026-05-07 20:22 7.14713 -83.94193 34890 ft 445 kts 149°
2026-05-07 20:22 7.09381 -83.91028 34892 ft 445 kts 149°
2026-05-07 20:23 7.04056 -83.87868 34895 ft 444 kts 149°
2026-05-07 20:23 6.98736 -83.84712 34896 ft 444 kts 149°
2026-05-07 20:24 6.93419 -83.81559 34894 ft 443 kts 149°
2026-05-07 20:24 6.88104 -83.78409 34890 ft 443 kts 149°
2026-05-07 20:25 6.82787 -83.75259 34890 ft 443 kts 149°
2026-05-07 20:25 6.77472 -83.72105 34885 ft 444 kts 149°
2026-05-07 20:26 6.72157 -83.68944 34880 ft 444 kts 149°
2026-05-07 20:26 6.66828 -83.65793 34880 ft 444 kts 149°
2026-05-07 20:27 6.61536 -83.62664 34877 ft 444 kts 149°
2026-05-07 20:27 6.56179 -83.59491 34878 ft 444 kts 149°
2026-05-07 20:28 6.50879 -83.56355 34880 ft 445 kts 149°
2026-05-07 20:28 6.45547 -83.53200 34882 ft 445 kts 149°
2026-05-07 20:29 6.40214 -83.50045 34881 ft 445 kts 149°
2026-05-07 20:29 6.34879 -83.46890 34881 ft 445 kts 149°
2026-05-07 20:30 6.29537 -83.43735 34884 ft 445 kts 149°
2026-05-07 20:30 6.24191 -83.40579 34888 ft 446 kts 149°
2026-05-07 20:31 6.18845 -83.37422 34892 ft 446 kts 149°
2026-05-07 20:31 6.13503 -83.34257 34890 ft 446 kts 149°
2026-05-07 20:32 6.08153 -83.31102 34889 ft 446 kts 149°
2026-05-07 20:32 6.02810 -83.27949 34895 ft 445 kts 149°
2026-05-07 20:33 5.97477 -83.24792 34897 ft 444 kts 149°
2026-05-07 20:33 5.92152 -83.21637 34904 ft 444 kts 149°
2026-05-07 20:34 5.86840 -83.18498 34902 ft 443 kts 149°
2026-05-07 20:34 5.81527 -83.15372 34893 ft 442 kts 149°
2026-05-07 20:35 5.76217 -83.12247 34884 ft 443 kts 149°
2026-05-07 20:35 5.70907 -83.09114 34875 ft 443 kts 149°
2026-05-07 20:36 5.65591 -83.05984 34873 ft 443 kts 149°
2026-05-07 20:36 5.60306 -83.02869 34866 ft 444 kts 149°
2026-05-07 20:37 5.54940 -82.99703 34862 ft 445 kts 149°
2026-05-07 20:37 5.49633 -82.96577 34865 ft 446 kts 149°
2026-05-07 20:38 5.44284 -82.93419 34869 ft 446 kts 149°
2026-05-07 20:38 5.38929 -82.90260 34876 ft 446 kts 149°
2026-05-07 20:39 5.33575 -82.87110 34876 ft 446 kts 149°
2026-05-07 20:39 5.28220 -82.83962 34878 ft 446 kts 149°
2026-05-07 20:40 5.22866 -82.80809 34879 ft 447 kts 149°
2026-05-07 20:40 5.17507 -82.77653 34880 ft 447 kts 149°
2026-05-07 20:41 5.12150 -82.74498 34881 ft 447 kts 149°
2026-05-07 20:41 5.06789 -82.71347 34882 ft 446 kts 149°
2026-05-07 20:42 5.01427 -82.68201 34877 ft 446 kts 149°
2026-05-07 20:42 4.96070 -82.65052 34878 ft 447 kts 149°
2026-05-07 20:43 4.90705 -82.61894 34883 ft 447 kts 149°
2026-05-07 20:43 4.85344 -82.58741 34889 ft 446 kts 149°
2026-05-07 20:44 4.79998 -82.55601 34888 ft 445 kts 149°
2026-05-07 20:44 4.74661 -82.52461 34885 ft 444 kts 149°
2026-05-07 20:45 4.69329 -82.49328 34885 ft 444 kts 149°
2026-05-07 20:45 4.63996 -82.46194 34883 ft 444 kts 149°
2026-05-07 20:46 4.58657 -82.43063 34884 ft 445 kts 149°
2026-05-07 20:46 4.53300 -82.39972 34878 ft 445 kts 153°
2026-05-07 20:47 4.47495 -82.37844 34861 ft 445 kts 161°
2026-05-07 20:47 4.41607 -82.35872 34858 ft 446 kts 161°
2026-05-07 20:48 4.35719 -82.33893 34860 ft 447 kts 161°
2026-05-07 20:48 4.29825 -82.31914 34860 ft 447 kts 161°
2026-05-07 20:49 4.23928 -82.29930 34862 ft 447 kts 161°
2026-05-07 20:49 4.18023 -82.27948 34864 ft 448 kts 161°
2026-05-07 20:50 4.12115 -82.25973 34864 ft 448 kts 161°
2026-05-07 20:50 4.06210 -82.23994 34866 ft 448 kts 161°
2026-05-07 20:51 4.00306 -82.22011 34871 ft 448 kts 161°
2026-05-07 20:51 3.95399 -82.20363 34870 ft 447 kts 161°
2026-05-07 20:52 3.89497 -82.18382 34871 ft 447 kts 161°
2026-05-07 20:52 3.82635 -82.16082 34869 ft 447 kts 161°
2026-05-07 20:53 3.77693 -82.14426 34871 ft 447 kts 161°
2026-05-07 20:53 3.71794 -82.12448 34873 ft 446 kts 160°
2026-05-07 20:54 3.65911 -82.10469 34876 ft 446 kts 160°
2026-05-07 20:54 3.60030 -82.08500 34877 ft 445 kts 160°
2026-05-07 20:55 3.54196 -82.06546 34876 ft 445 kts 160°
2026-05-07 20:55 3.48327 -82.04580 34874 ft 445 kts 160°
2026-05-07 20:56 3.42460 -82.02614 34875 ft 445 kts 160°
2026-05-07 20:56 3.36593 -82.00647 34873 ft 444 kts 160°
2026-05-07 20:57 3.30733 -81.98683 34871 ft 444 kts 160°
2026-05-07 20:57 3.24832 -81.96707 34867 ft 444 kts 160°
2026-05-07 20:58 3.18971 -81.94745 34864 ft 444 kts 160°
2026-05-07 20:58 3.13115 -81.92786 34859 ft 444 kts 160°
2026-05-07 20:59 3.07257 -81.90829 34857 ft 444 kts 160°
2026-05-07 20:59 3.01404 -81.88871 34859 ft 443 kts 161°
2026-05-07 21:00 2.95595 -81.86925 34863 ft 443 kts 160°
2026-05-07 21:00 2.89757 -81.84969 34867 ft 442 kts 161°
2026-05-07 21:01 2.83930 -81.83017 34864 ft 442 kts 161°
2026-05-07 21:01 2.78102 -81.81069 34861 ft 441 kts 161°
2026-05-07 21:02 2.72276 -81.79122 34858 ft 442 kts 161°
2026-05-07 21:02 2.66445 -81.77174 34859 ft 442 kts 160°
2026-05-07 21:03 2.60621 -81.75224 34863 ft 441 kts 160°
2026-05-07 21:03 2.54806 -81.73272 34869 ft 441 kts 161°
2026-05-07 21:04 2.48997 -81.71329 34871 ft 440 kts 161°
2026-05-07 21:04 2.43190 -81.69391 34873 ft 439 kts 160°
2026-05-07 21:05 2.37394 -81.67455 34868 ft 440 kts 161°
2026-05-07 21:05 2.31586 -81.65515 34862 ft 440 kts 161°
2026-05-07 21:06 2.25777 -81.63572 34863 ft 441 kts 161°
2026-05-07 21:06 2.19963 -81.61629 34874 ft 440 kts 160°
2026-05-07 21:07 2.14155 -81.59682 34878 ft 440 kts 161°
2026-05-07 21:07 2.08345 -81.57739 34878 ft 440 kts 161°
2026-05-07 21:08 2.02540 -81.55803 34880 ft 440 kts 161°
2026-05-07 21:08 1.96735 -81.53869 34885 ft 440 kts 161°
2026-05-07 21:09 1.90934 -81.51928 34888 ft 440 kts 161°
2026-05-07 21:09 1.85134 -81.49987 34879 ft 439 kts 161°
2026-05-07 21:10 1.79335 -81.48049 34880 ft 439 kts 161°
2026-05-07 21:10 1.73537 -81.46114 34885 ft 439 kts 161°
2026-05-07 21:11 1.67737 -81.44173 34880 ft 439 kts 161°
2026-05-07 21:11 1.59044 -81.41276 34877 ft 439 kts 161°
2026-05-07 21:12 1.53242 -81.39345 34875 ft 439 kts 161°
2026-05-07 21:12 1.47447 -81.37415 34874 ft 439 kts 161°
2026-05-07 21:13 1.41660 -81.35472 34874 ft 439 kts 161°
2026-05-07 21:13 1.35868 -81.33534 34874 ft 439 kts 161°
2026-05-07 21:14 1.30077 -81.31602 34874 ft 439 kts 161°
2026-05-07 21:14 1.24291 -81.29672 34875 ft 438 kts 161°
2026-05-07 21:15 1.18505 -81.27739 34871 ft 438 kts 161°
2026-05-07 21:15 1.12720 -81.25810 34871 ft 438 kts 161°
2026-05-07 21:16 1.06937 -81.23876 34873 ft 438 kts 161°
2026-05-07 21:16 1.01165 -81.21947 34876 ft 437 kts 161°
2026-05-07 21:17 0.95389 -81.20019 34873 ft 437 kts 161°
2026-05-07 21:17 0.89611 -81.18088 34869 ft 438 kts 161°
2026-05-07 21:18 0.83832 -81.16165 34870 ft 438 kts 161°
2026-05-07 21:18 0.78058 -81.14236 34872 ft 437 kts 161°
2026-05-07 21:19 0.72290 -81.12302 34873 ft 437 kts 162°
2026-05-07 21:19 0.66519 -81.10374 34874 ft 437 kts 162°
2026-05-07 21:20 0.60755 -81.08452 34873 ft 437 kts 162°
2026-05-07 21:20 0.54990 -81.06537 34876 ft 436 kts 162°
2026-05-07 21:21 0.49236 -81.04619 34874 ft 436 kts 162°
2026-05-07 21:21 0.43480 -81.02696 34873 ft 436 kts 162°
2026-05-07 21:22 0.37725 -81.00770 34873 ft 436 kts 162°
2026-05-07 21:22 0.31973 -80.98848 34872 ft 436 kts 162°
2026-05-07 21:23 0.26224 -80.96931 34874 ft 435 kts 162°
2026-05-07 21:23 0.20481 -80.95010 34871 ft 435 kts 161°
2026-05-07 21:24 0.14733 -80.93091 34866 ft 435 kts 162°
2026-05-07 21:24 0.08987 -80.91178 34866 ft 435 kts 162°
2026-05-07 21:25 0.03241 -80.89262 34857 ft 435 kts 162°
2026-05-07 21:25 -0.02496 -80.87340 34856 ft 435 kts 162°
2026-05-07 21:26 -0.08236 -80.85424 34856 ft 435 kts 162°
2026-05-07 21:26 -0.13975 -80.83515 34856 ft 435 kts 162°
2026-05-07 21:27 -0.19711 -80.81601 34857 ft 434 kts 162°
2026-05-07 21:27 -0.25401 -80.79702 34860 ft 434 kts 162°
2026-05-07 21:28 -0.31130 -80.77790 34855 ft 434 kts 162°
2026-05-07 21:28 -0.36857 -80.75877 34846 ft 434 kts 162°
2026-05-07 21:29 -0.42587 -80.73968 34847 ft 434 kts 162°
2026-05-07 21:29 -0.48312 -80.72059 34843 ft 434 kts 162°
2026-05-07 21:30 -0.54033 -80.70145 34843 ft 433 kts 161°
2026-05-07 21:30 -0.59751 -80.68232 34841 ft 433 kts 162°
2026-05-07 21:31 -0.62621 -80.67276 34695 ft 435 kts 162°
2026-05-07 21:31 -0.65490 -80.66318 34465 ft 435 kts 162°
2026-05-07 21:31 -0.68361 -80.65360 34240 ft 434 kts 162°
2026-05-07 21:31 -0.71230 -80.64405 33999 ft 435 kts 162°
2026-05-07 21:32 -0.74101 -80.63451 33767 ft 435 kts 162°
2026-05-07 21:32 -0.76963 -80.62498 33367 ft 432 kts 162°
2026-05-07 21:32 -0.79798 -80.61553 32776 ft 428 kts 161°
2026-05-07 21:32 -0.82605 -80.60616 32181 ft 424 kts 161°
2026-05-07 21:33 -0.85390 -80.59686 31563 ft 421 kts 161°
2026-05-07 21:33 -0.88160 -80.58763 30946 ft 418 kts 161°
2026-05-07 21:33 -0.90910 -80.57844 30329 ft 416 kts 161°
2026-05-07 21:33 -0.93647 -80.56928 29689 ft 413 kts 160°
2026-05-07 21:34 -0.96363 -80.56021 29050 ft 409 kts 160°
2026-05-07 21:34 -0.99045 -80.55127 28456 ft 403 kts 160°
2026-05-07 21:34 -1.01686 -80.54246 27879 ft 398 kts 160°
2026-05-07 21:34 -1.04291 -80.53375 27309 ft 392 kts 160°
2026-05-07 21:35 -1.06858 -80.52516 26750 ft 386 kts 160°
2026-05-07 21:35 -1.08543 -80.51952 26388 ft 384 kts 160°
2026-05-07 21:35 -1.11075 -80.51107 25852 ft 383 kts 160°
2026-05-07 21:35 -1.13594 -80.50268 25321 ft 380 kts 160°
2026-05-07 21:36 -1.16094 -80.49433 24802 ft 378 kts 160°
2026-05-07 21:36 -1.18583 -80.48602 24300 ft 376 kts 159°
2026-05-07 21:36 -1.20972 -80.47594 23794 ft 371 kts 149°
2026-05-07 21:36 -1.23116 -80.46196 23262 ft 366 kts 139°
2026-05-07 21:37 -1.25087 -80.44605 22743 ft 363 kts 139°
2026-05-07 21:37 -1.27053 -80.43028 22264 ft 361 kts 139°
2026-05-07 21:37 -1.29008 -80.41467 21774 ft 358 kts 140°
2026-05-07 21:37 -1.30950 -80.39919 21289 ft 355 kts 140°
2026-05-07 21:38 -1.32873 -80.38386 20791 ft 352 kts 140°
2026-05-07 21:38 -1.34784 -80.36864 20300 ft 350 kts 140°
2026-05-07 21:38 -1.36679 -80.35353 19795 ft 347 kts 140°
2026-05-07 21:38 -1.38558 -80.33856 19298 ft 344 kts 140°
2026-05-07 21:39 -1.40419 -80.32369 18796 ft 341 kts 140°
2026-05-07 21:39 -1.42266 -80.30890 18298 ft 339 kts 140°
2026-05-07 21:39 -1.44098 -80.29422 17761 ft 337 kts 140°
2026-05-07 21:39 -1.45917 -80.27968 17252 ft 333 kts 140°
2026-05-07 21:40 -1.47714 -80.26532 16785 ft 330 kts 140°
2026-05-07 21:40 -1.49503 -80.25106 16314 ft 328 kts 140°
2026-05-07 21:40 -1.51276 -80.23692 15841 ft 326 kts 140°
2026-05-07 21:40 -1.53045 -80.22277 15377 ft 324 kts 140°
2026-05-07 21:41 -1.54799 -80.20872 14924 ft 322 kts 140°
2026-05-07 21:41 -1.56539 -80.19475 14460 ft 320 kts 140°
2026-05-07 21:41 -1.58264 -80.18082 14004 ft 318 kts 139°
2026-05-07 21:41 -1.59976 -80.16699 13522 ft 316 kts 139°
2026-05-07 21:42 -1.61677 -80.15323 13045 ft 313 kts 140°
2026-05-07 21:42 -1.63365 -80.13959 12567 ft 311 kts 140°
2026-05-07 21:42 -1.65042 -80.12602 12106 ft 309 kts 140°
2026-05-07 21:42 -1.66706 -80.11256 11631 ft 307 kts 140°
2026-05-07 21:43 -1.68352 -80.09922 11161 ft 302 kts 140°
2026-05-07 21:43 -1.69989 -80.08599 10698 ft 303 kts 140°
2026-05-07 21:43 -1.71623 -80.07280 10233 ft 301 kts 140°
2026-05-07 21:43 -1.73224 -80.05989 9812 ft 292 kts 140°
2026-05-07 21:44 -1.74813 -80.04706 9688 ft 295 kts 141°
2026-05-07 21:44 -1.76401 -80.03424 9558 ft 293 kts 140°
2026-05-07 21:44 -1.77983 -80.02146 9433 ft 292 kts 140°
2026-05-07 21:44 -1.79563 -80.00869 9124 ft 291 kts 140°
2026-05-07 21:45 -1.81130 -79.99600 8719 ft 289 kts 140°
2026-05-07 21:45 -1.82684 -79.98343 8311 ft 287 kts 141°
2026-05-07 21:45 -1.84233 -79.97094 7906 ft 286 kts 141°
2026-05-07 21:45 -1.85773 -79.95853 7500 ft 282 kts 141°
2026-05-07 21:46 -1.87285 -79.94630 7102 ft 277 kts 141°
2026-05-07 21:46 -1.88772 -79.93425 6714 ft 273 kts 141°
2026-05-07 21:46 -1.90237 -79.92236 6328 ft 270 kts 141°
2026-05-07 21:46 -1.91684 -79.91064 5973 ft 264 kts 141°
2026-05-07 21:47 -1.93089 -79.89929 5715 ft 256 kts 141°
2026-05-07 21:47 -1.94466 -79.88818 5381 ft 253 kts 141°
2026-05-07 21:47 -1.95793 -79.87684 5025 ft 250 kts 137°
2026-05-07 21:47 -1.97045 -79.86476 4668 ft 249 kts 136°
2026-05-07 21:48 -1.98273 -79.85259 4298 ft 249 kts 135°
2026-05-07 21:48 -1.99505 -79.84029 3931 ft 251 kts 135°
2026-05-07 21:48 -2.00833 -79.82904 3559 ft 251 kts 149°
2026-05-07 21:48 -2.02432 -79.82255 3209 ft 247 kts 169°
2026-05-07 21:49 -2.04149 -79.82154 2671 ft 251 kts 187°
2026-05-07 21:49 -2.05834 -79.82662 2078 ft 255 kts 209°
2026-05-07 21:49 -2.07309 -79.83508 1704 ft 232 kts 212°
2026-05-07 21:49 -2.08611 -79.84255 1416 ft 201 kts 211°
2026-05-07 21:50 -2.09731 -79.84899 1181 ft 170 kts 212°
2026-05-07 21:50 -2.10686 -79.85449 975 ft 149 kts 212°
2026-05-07 21:50 -2.11545 -79.85944 768 ft 137 kts 211°
2026-05-07 21:50 -2.12356 -79.86412 604 ft 134 kts 210°
2026-05-07 21:51 -2.13157 -79.86874 438 ft 132 kts 210°
2026-05-07 21:51 -2.13955 -79.87335 289 ft 133 kts 210°
2026-05-07 21:51 -2.14752 -79.87793 106 ft 132 kts 209°
2026-05-07 21:51 -2.15535 -79.88240 29 ft 123 kts 210°
2026-05-07 21:52 -2.16197 -79.88627 24 ft 82 kts 210°
2026-05-07 21:52 -2.16407 -79.88746 25 ft 0 kts 213°
2026-05-07 21:52 -2.16434 -79.88764 25 ft 9 kts 213°
2026-05-07 21:52 -2.16520 -79.88814 25 ft 16 kts 209°
2026-05-07 21:53 -2.16619 -79.88872 25 ft 17 kts 211°
2026-05-07 21:53 -2.16711 -79.88943 22 ft 14 kts 242°
2026-05-07 21:53 -2.16670 -79.89001 23 ft 12 kts
2026-05-07 21:53 -2.16594 -79.88967 23 ft 10 kts 30°
2026-05-07 21:54 -2.16587 -79.88962 23 ft 0 kts 30°
2026-05-07 21:55 -2.16565 -79.88950 24 ft 13 kts 29°
2026-05-07 21:56 -2.16482 -79.88902 23 ft 13 kts 30°
2026-05-07 21:56 -2.16397 -79.88854 23 ft 15 kts 30°
2026-05-07 21:56 -2.16302 -79.88797 23 ft 17 kts 31°
2026-05-07 21:56 -2.16195 -79.88736 23 ft 19 kts 30°
2026-05-07 21:57 -2.16078 -79.88671 23 ft 16 kts 28°
2026-05-07 21:57 -2.15973 -79.88609 23 ft 18 kts 28°
2026-05-07 21:57 -2.15856 -79.88542 23 ft 20 kts 30°
2026-05-07 21:57 -2.15729 -79.88469 23 ft 22 kts 30°
2026-05-07 21:58 -2.15598 -79.88393 22 ft 19 kts 30°
2026-05-07 21:58 -2.15480 -79.88326 22 ft 19 kts 30°
2026-05-07 21:58 -2.15367 -79.88261 22 ft 18 kts 30°
2026-05-07 21:58 -2.15265 -79.88243 23 ft 15 kts 327°
2026-05-07 21:59 -2.15211 -79.88319 22 ft 12 kts 302°
2026-05-07 21:59 -2.15154 -79.88383 22 ft 13 kts 343°
2026-05-07 21:59 -2.15085 -79.88365 24 ft 4 kts 16°
2026-05-07 21:59 -2.15057 -79.88368 22 ft 5 kts 341°
2026-05-07 22:00 -2.15036 -79.88389 22 ft 0 kts 296°
2026-05-07 22:00 -2.15033 -79.88398 25 ft 0 kts 288°
2026-05-07 22:00 -2.15026 -79.88412 24 ft 3 kts 299°
2026-05-07 22:00 -2.15024 -79.88415 23 ft 0 kts 300°